Regional Weather Roundup
Issued by NWS

Home | Current Version | Previous Version | Graphics & Text | Print | Product List | Glossary On
Versions: 1 2 3 4 5 6 7 8 9 10 11 12 13 14 15 16 17 18 19 20 21 22 23 24 25 26 27 28 29 30 31 32 33 34 35 36 37 38 39 40 41 42 43 44 45 46 47 48 49 50
000
ASUS43 KDMX 270601
RWRIA

WEATHER ROUNDUP FOR IOWA
NATIONAL WEATHER SERVICE DES MOINES IA
100 AM CDT SUN MAY 27 2018

NOTE: "FAIR" INDICATES FEW OR NO CLOUDS BELOW 12,000 FEET WITH NO
SIGNIFICANT WEATHER AND/OR OBSTRUCTIONS TO VISIBILITY.

* - THESE STATIONS ARE NOT NWS STATIONS...THUS NOT UNDER NWS
QUALITY CONTROL.  THEY ALSO DO NOT REPORT WEATHER SUCH
AS PRECIPITATION OR FOG.

IAZ001>003-012>014-020>022-031>034-043>046-270700-
   NORTHWEST IOWA

CITY           SKY/WX    TMP DP  RH WIND       PRES   REMARKS
CARROLL *      CLEAR     70  54  56 CALM      29.78S
CHEROKEE *     CLEAR     65  61  86 CALM      29.80R
DENISON *      CLEAR     68  55  64 CALM      29.80S
LE MARS *      CLEAR     70  59  68 CALM      29.78S
ORANGE CITY *  CLEAR     79  52  38 CALM      29.79F
SHELDON *      CLEAR     72  52  49 E6        29.79R
SIOUX CITY     CLEAR     75  56  51 E5        29.77S
6HR MIN TEMP:  75; 6HR MAX TEMP:  94;

SPENCER        CLEAR     66  59  78 CALM      29.80S
6HR MIN TEMP:  65; 6HR MAX TEMP:  93;

STORM LAKE *   CLEAR     77  50  38 E6        29.80F
$$

IAZ055>058-069>071-079>083-090>094-270700-
   SOUTHWEST IOWA

CITY           SKY/WX    TMP DP  RH WIND       PRES   REMARKS
ATLANTIC *     CLEAR     68  61  77 N3        29.79S
AUDUBON *      CLEAR     64  59  82 CALM      29.81R
CLARINDA *       N/A     68  66  94 CALM      29.80S
COUNCIL BLFS * CLEAR     79  54  41 SE6       29.78S
CRESTON *      CLEAR     75  68  78 S8        29.81S
HARLAN  *      CLEAR     66  61  82 CALM      29.82S
LAMONI         CLEAR     75  68  78 S8        29.80S
6HR MIN TEMP:  75; 6HR MAX TEMP:  90;

RED OAK *      CLEAR     70  59  68 CALM      29.78S
SHENANDOAH *   PTCLDY    73  63  68 CALM      29.78S
$$

IAZ047>049-059>061-072>074-084-270700-
   CENTRAL IOWA

CITY           SKY/WX    TMP DP  RH WIND       PRES   REMARKS
AMES           CLEAR     70  65  84 CALM      29.77S
6HR MIN TEMP:  69; 6HR MAX TEMP:  90;

ANKENY *       CLEAR     72  64  78 CALM      29.79R
BOONE *        CLEAR     75  57  53 E3        29.78S
CHARITON *     CLEAR     75  68  78 S7        29.79S
DES MOINES     CLEAR     78  66  66 SW5       29.77S HX  80
6HR MIN TEMP:  77; 6HR MAX TEMP:  92;

GRINNELL*      CLEAR     73  67  82 S6        29.80S
KNOXVILLE *    CLEAR     75  66  73 S8        29.77S
MARSHALLTOWN   CLEAR     74  69  85 SE3       29.78S
6HR MIN TEMP:  73; 6HR MAX TEMP:  88;

NEWTON *       CLEAR     73  66  78 S6        29.79R
PELLA *        CLEAR     75  66  75 S5        29.79S
PERRY *        FAIR      73  47  39 SW5       29.77F
$$

IAZ004>006-015-016-023>025-035-036-270700-
   NORTH CENTRAL IOWA

CITY           SKY/WX    TMP DP  RH WIND       PRES   REMARKS
ALGONA *       CLEAR     73  59  60 S3        29.79S
CLARION *      CLEAR     72  59  64 CALM      29.79S
ESTHERVILLE    CLEAR     67  60  78 SW3       29.79S
6HR MIN TEMP:  67; 6HR MAX TEMP:  90;

FORT DODGE *   CLEAR     67  61  81 CALM      29.79S
MASON CITY     CLEAR     68  58  70 CALM      29.80R
6HR MIN TEMP:  67; 6HR MAX TEMP:  89;

FOREST CITY *  FAIR      63  59  88 CALM      29.79S
WEBSTER CITY * CLEAR     72  57  60 CALM      29.77S
IOWA FALLS *   FAIR      73  67  82 SE5       29.79F
$$

IAZ007>011-017>019-026>030-037>042-050>054-066-270700-
   NORTHEAST IOWA

CITY           SKY/WX    TMP DP  RH WIND       PRES   REMARKS
CEDAR RAPIDS   FAIR      74  69  85 S5        29.79S
6HR MIN TEMP:  72; 6HR MAX TEMP:  88;

CHARLES CITY * FAIR      72  66  83 S6        29.79S
CLINTON *        N/A     73  69  87 S5        29.81S
DECORAH *      FAIR      75  68  78 S3        29.78F
DUBUQUE        FAIR      71  63  75 SW3       29.82R
6HR MIN TEMP:  71; 6HR MAX TEMP:  85;

MONTICELLO *   FAIR      72  68  88 CALM      29.79S
OELWEIN *      FAIR      73  68  83 SE7       29.80S
WATERLOO       FAIR      72  68  87 S5        29.77S
6HR MIN TEMP:  70; 6HR MAX TEMP:  88;

$$

IAZ064-065-067-068-078-270700-
   EAST CENTRAL IOWA

CITY           SKY/WX    TMP DP  RH WIND       PRES   REMARKS
DAVENPORT      FAIR      71  67  87 S6        29.82S
6HR MIN TEMP:  70; 6HR MAX TEMP:  88;

IOWA CITY      FAIR      76  70  82 SE3       29.80S
6HR MIN TEMP:  73; 6HR MAX TEMP:  89;

MUSCATINE *    FAIR      72  70  94 CALM      29.80S
QUAD CITIES    FAIR      71  68  90 CALM      29.80S
6HR MIN TEMP:  69; 6HR MAX TEMP:  89;

$$

IAZ062-063-075>077-085>089-095>099-270700-
   SOUTHEAST IOWA

CITY           SKY/WX    TMP DP  RH WIND       PRES   REMARKS
BURLINGTON     CLEAR     71  66  84 CALM      29.80S
6HR MIN TEMP:  70; 6HR MAX TEMP:  84;

FAIRFIELD *    CLEAR     73  64  73 S6        29.79S
FORT MADISON * CLEAR     72  64  78 S5        29.82S
KEOKUK *       CLEAR     72  64  78 S5        29.80S
OSKALOOSA *    FAIR      73  66  81 S8        29.80S
CENTERVILLE *    N/A     72  70  94 CALM      29.82S
OTTUMWA        CLEAR     73  67  81 S7        29.79S
6HR MIN TEMP:  73; 6HR MAX TEMP:  88;

WASHINGTON *   CLEAR     72  70  94 S3        29.81S
$$

ABBREVIATIONS USED IN REMARKS
   TC - TEMPERATURES IN CELSIUS
  WCI - WIND CHILL INDEX
   HX - HEAT INDEX
  VSB - VISIBILITY
$$




USA.gov is the U.S. government's official web portal to all federal, state and local government web resources and services.